Latest Weather Observations for Coldstream

IDV60901

Issued at 9:51 pm EST Saturday 23 May 2015 (issued every 10 minutes, with the page automatically refreshed every 10 minutes)

About weather observations | Map of Melbourne area stations | Latest observations for Melbourne area | Other Formats
Station Details ID: 086383 Name: COLDSTREAM Lat: -37.72 Lon: 145.41 Height: 83.0 m
Data from the previous 72 hours. | See also: Recent months at Coldstream
Date/Time
EST
Tmp

°C
App
Tmp
°C
Dew
Point
°C
Rel
Hum
%
Delta-T

°C
Wind Press
QNH
hPa
Press
MSL
hPa
Rain
since
9 am
mm
Dir
 
Spd
km/h
Gust
km/h
Spd
kts
Gust
kts
23/09:30pm 1.6 -0.2 1.0 96 0.2 CALM 0 0 0 0 1032.3 1032.4 0.0
23/09:00pm 1.8 -0.4 1.1 95 0.3 S 2 7 1 4 1032.2 1032.3 0.0
23/08:30pm 2.9 1.3 2.2 95 0.3 CALM 0 0 0 0 1032.0 1032.1 0.0
23/08:00pm 3.6 2.0 2.7 94 0.4 CALM 0 0 0 0 1031.9 1032.0 0.0
23/07:30pm 4.5 3.1 3.3 92 0.5 CALM 0 0 0 0 1031.7 1031.8 0.0
23/07:00pm 5.0 3.6 3.3 89 0.7 CALM 0 0 0 0 1031.5 1031.6 0.0
23/06:30pm 6.5 4.1 4.2 85 1.0 S 6 9 3 5 1031.4 1031.5 0.0
23/06:00pm 8.8 6.5 5.7 81 1.4 S 7 11 4 6 1031.3 1031.4 0.0
23/05:30pm 9.7 7.4 5.9 77 1.8 SSE 7 11 4 6 1031.1 1031.2 0.0
23/05:00pm 11.0 8.8 6.2 72 2.2 SSE 7 13 4 7 1031.0 1031.1 0.0
23/04:30pm 11.9 9.3 6.2 68 2.7 SE 9 13 5 7 1031.1 1031.2 0.0
23/04:00pm 13.4 11.3 6.5 63 3.3 SSE 7 13 4 7 1031.3 1031.4 0.0
23/03:30pm 13.9 11.3 6.3 60 3.7 SSW 9 15 5 8 1031.0 1031.1 0.0
23/03:00pm 14.1 11.6 6.7 61 3.6 S 9 13 5 7 1030.9 1031.0 0.0
23/02:30pm 13.9 12.2 5.8 58 3.9 ESE 4 17 2 9 1031.0 1031.1 0.0
23/02:00pm 13.7 11.0 5.6 58 3.8 ESE 9 15 5 8 1031.1 1031.2 0.0
23/01:30pm 13.4 10.7 5.8 60 3.6 SSE 9 17 5 9 1031.4 1031.5 0.0
23/01:00pm 13.1 10.4 5.8 61 3.4 SSE 9 15 5 8 1031.6 1031.7 0.0
23/12:30pm 12.7 10.0 5.4 61 3.4 SE 9 20 5 11 1032.0 1032.1 0.0
23/12:00pm 12.3 9.6 5.5 63 3.1 SE 9 15 5 8 1032.5 1032.6 0.0
23/11:30am 12.6 11.4 6.6 67 2.9 N 2 9 1 5 1032.9 1033.0 0.0
23/11:00am 11.7 10.0 5.8 67 2.7 SSE 4 11 2 6 1033.3 1033.4 0.0
23/10:30am 11.4 9.2 5.3 66 2.8 ESE 6 9 3 5 1033.4 1033.5 0.0
23/10:00am 10.7 8.0 5.5 70 2.4 SE 9 13 5 7 1033.4 1033.5 0.0
23/09:30am 10.5 8.2 5.5 71 2.3 E 7 9 4 5 1033.5 1033.6 0.0
23/09:00am 10.1 7.8 5.9 75 1.9 ESE 7 9 4 5 1033.5 1033.6 0.0
23/08:30am 9.8 7.6 5.4 74 2.0 SSW 6 9 3 5 1033.2 1033.3 0.0
23/08:00am 9.2 8.1 5.2 76 1.8 CALM 0 0 0 0 1032.9 1033.0 0.0
23/07:30am 9.2 6.7 4.6 73 2.1 SSE 7 11 4 6 1032.7 1032.8 0.0
23/07:00am 9.3 7.8 4.9 74 2.0 S 2 6 1 3 1032.6 1032.7 0.0
23/06:30am 9.2 6.7 4.8 74 2.0 S 7 13 4 7 1032.3 1032.4 0.0
23/06:00am 9.4 6.4 4.2 70 2.3 S 9 15 5 8 1032.0 1032.1 0.0
23/05:30am 9.2 6.2 4.2 71 2.2 SSE 9 13 5 7 1031.8 1031.9 0.0
23/05:00am 9.7 7.3 5.1 73 2.1 SSE 7 15 4 8 1031.7 1031.8 0.0
23/04:30am 9.7 6.6 5.5 75 1.9 SE 11 15 6 8 1031.6 1031.7 0.0
23/04:00am 9.4 8.2 6.3 81 1.4 S 2 7 1 4 1031.5 1031.6 0.0
23/03:30am 9.2 8.4 6.5 83 1.3 CALM 0 2 0 1 1031.4 1031.5 0.0
23/03:00am 9.3 8.5 6.7 84 1.2 CALM 0 0 0 0 1031.5 1031.6 0.0
23/02:30am 9.3 8.5 6.7 84 1.2 CALM 0 2 0 1 1031.7 1031.8 0.0
23/02:00am 9.5 8.7 6.4 81 1.4 CALM 0 7 0 4 1031.8 1031.9 0.0
23/01:30am 9.5 8.7 6.6 82 1.4 CALM 0 0 0 0 1031.7 1031.8 0.0
23/01:00am 9.7 8.6 6.8 82 1.4 SSW 2 6 1 3 1031.8 1031.9 0.0
23/12:30am 9.7 9.0 7.0 83 1.3 CALM 0 0 0 0 1032.1 1032.2 0.0
23/12:00am 9.7 8.6 7.0 83 1.3 SW 2 7 1 4 1032.2 1032.3 0.0
 
Date/Time
EST
Tmp

°C
App
Tmp
°C
Dew
Point
°C
Rel
Hum
%
Delta-T

°C
Wind Press
QNH
hPa
Press
MSL
hPa
Rain
since
9 am
mm
Dir
 
Spd
km/h
Gust
km/h
Spd
kts
Gust
kts
22/11:30pm 9.6 8.9 6.9 83 1.3 CALM 0 0 0 0 1032.1 1032.2 0.0
22/11:00pm 9.8 9.0 6.5 80 1.5 CALM 0 0 0 0 1031.9 1032.0 0.0
22/10:30pm 10.1 8.4 6.1 76 1.9 S 4 7 2 4 1032.0 1032.1 0.0
22/10:00pm 10.3 9.3 5.7 73 2.1 CALM 0 6 0 3 1032.0 1032.1 0.0
22/09:30pm 10.5 8.2 5.5 71 2.3 S 7 13 4 7 1031.9 1032.0 0.0
22/09:00pm 10.6 7.7 4.9 68 2.6 S 9 17 5 9 1031.9 1032.0 0.0
22/08:30pm 10.6 8.2 5.4 70 2.4 SSE 7 13 4 7 1031.7 1031.8 0.0
22/08:00pm 10.8 7.3 5.3 69 2.5 S 13 19 7 10 1031.5 1031.6 0.0
22/07:30pm 10.6 7.5 5.4 70 2.4 S 11 24 6 13 1031.3 1031.4 0.0
22/07:00pm 10.3 8.1 6.1 75 1.9 S 7 13 4 7 1031.0 1031.1 0.0
22/06:30pm 10.5 8.0 6.6 77 1.8 SSW 9 15 5 8 1030.7 1030.8 0.0
22/06:00pm 10.6 8.2 6.9 78 1.7 S 9 13 5 7 1030.4 1030.5 0.0
22/05:30pm 10.6 7.7 6.4 75 2.0 S 11 17 6 9 1030.2 1030.3 0.0
22/05:00pm 11.4 8.5 6.3 71 2.4 S 11 20 6 11 1030.1 1030.2 0.0
22/04:30pm 11.9 7.9 6.6 70 2.5 S 17 26 9 14 1030.0 1030.1 0.0
22/04:00pm 12.7 9.2 7.4 70 2.6 S 15 24 8 13 1029.8 1029.9 0.0
22/03:30pm 12.6 8.8 7.5 71 2.5 S 17 24 9 13 1029.7 1029.8 0.0
22/03:00pm 12.5 9.3 8.4 76 2.0 S 15 24 8 13 1029.4 1029.5 0.0
22/02:30pm 12.7 8.9 7.6 71 2.5 S 17 24 9 13 1029.1 1029.2 0.0
22/02:00pm 13.3 9.4 6.9 65 3.1 S 17 26 9 14 1028.8 1028.9 0.0
22/01:30pm 13.7 10.3 7.5 66 3.1 S 15 20 8 11 1028.8 1028.9 0.0
22/01:00pm 14.2 11.2 7.5 64 3.3 S 13 22 7 12 1028.7 1028.8 0.0
22/12:30pm 13.7 10.0 6.3 61 3.6 SSE 15 20 8 11 1028.8 1028.9 0.0
22/12:00pm 14.0 10.2 5.6 57 4.0 SSE 15 26 8 14 1029.0 1029.1 0.0
22/11:30am 14.4 11.5 6.3 58 3.9 SE 11 17 6 9 1029.2 1029.3 0.0
22/11:00am 13.7 9.9 5.8 59 3.7 SSE 15 26 8 14 1029.4 1029.5 0.0
22/10:30am 13.9 9.8 6.3 60 3.7 SE 17 28 9 15 1029.5 1029.6 0.0
22/10:00am 13.2 9.7 7.4 68 2.8 SE 15 26 8 14 1029.3 1029.4 0.0
22/09:30am 11.9 8.4 7.4 74 2.2 SE 15 22 8 12 1029.2 1029.3 0.0
22/09:00am 11.3 9.5 8.0 80 1.6 SSE 7 13 4 7 1029.4 1029.5 0.2
22/08:30am 9.7 7.3 7.1 84 1.2 ESE 9 15 5 8 1029.1 1029.2 0.2
22/08:00am 9.6 8.0 8.0 90 0.8 S 6 9 3 5 1028.9 1029.0 0.2
22/07:30am 8.2 6.5 7.6 96 0.3 S 6 7 3 4 1028.6 1028.7 0.2
22/07:00am 7.8 7.1 7.1 95 0.3 CALM 0 0 0 0 1028.2 1028.3 0.2
22/06:30am 7.3 5.1 6.4 94 0.4 SE 7 7 4 4 1027.7 1027.8 0.2
22/06:00am 7.3 5.3 6.1 92 0.5 SSE 6 7 3 4 1027.4 1027.5 0.2
22/05:30am 8.5 6.5 7.3 92 0.6 S 7 11 4 6 1027.1 1027.1 0.2
22/05:00am 8.9 6.7 7.8 93 0.5 S 9 11 5 6 1026.7 1026.7 0.2
22/04:30am 9.1 7.2 7.7 91 0.7 S 7 9 4 5 1026.4 1026.5 0.2
22/04:00am 9.5 7.9 8.1 91 0.7 S 6 11 3 6 1026.3 1026.4 0.2
22/03:30am 10.3 8.3 8.6 89 0.8 S 9 17 5 9 1026.2 1026.3 0.2
22/03:00am 10.7 8.3 8.8 88 0.9 S 11 17 6 9 1026.1 1026.2 0.2
22/02:30am 10.8 8.5 8.9 88 0.9 S 11 19 6 10 1026.0 1026.1 0.2
22/02:00am 10.9 7.8 8.8 87 1.0 S 15 22 8 12 1025.8 1025.9 0.2
22/01:30am 10.4 8.8 8.8 90 0.8 S 7 15 4 8 1025.6 1025.7 0.2
22/01:00am 11.0 9.7 9.1 88 0.9 SSE 6 13 3 7 1025.6 1025.7 0.2
22/12:30am 10.9 10.4 9.3 90 0.8 SSE 2 9 1 5 1025.6 1025.7 0.2
22/12:00am 10.6 8.6 8.7 88 0.9 SE 9 15 5 8 1025.6 1025.7 0.2
 
Date/Time
EST
Tmp

°C
App
Tmp
°C
Dew
Point
°C
Rel
Hum
%
Delta-T

°C
Wind Press
QNH
hPa
Press
MSL
hPa
Rain
since
9 am
mm
Dir
 
Spd
km/h
Gust
km/h
Spd
kts
Gust
kts
21/11:30pm 11.0 7.2 8.9 87 1.0 SSE 19 28 10 15 1025.5 1025.6 0.2
21/11:00pm 10.7 6.8 8.6 87 1.0 SSE 19 24 10 13 1025.5 1025.6 0.2
21/10:30pm 10.5 7.8 9.1 91 0.7 SSE 13 19 7 10 1025.5 1025.6 0.2
21/10:00pm 10.7 9.3 9.5 92 0.6 SSE 7 11 4 6 1025.5 1025.6 0.2
21/09:30pm 10.8 9.0 9.4 91 0.7 SSE 9 11 5 6 1025.4 1025.5 0.2
21/09:00pm 10.5 9.0 9.1 91 0.7 SSE 7 11 4 6 1025.3 1025.4 0.2
21/08:30pm 10.5 8.7 9.4 93 0.6 SSE 9 13 5 7 1025.2 1025.3 0.2
21/08:00pm 10.4 10.3 9.6 95 0.4 CALM 0 0 0 0 1025.0 1025.1 0.2
21/07:30pm 10.3 10.2 9.4 94 0.5 CALM 0 0 0 0 1024.7 1024.8 0.2
21/07:00pm 10.4 10.3 9.3 93 0.5 CALM 0 0 0 0 1024.6 1024.7 0.2
21/06:30pm 10.8 10.7 9.4 91 0.7 CALM 0 0 0 0 1024.4 1024.5 0.2
21/06:00pm 11.1 11.1 9.7 91 0.7 CALM 0 0 0 0 1024.2 1024.3 0.2
21/05:30pm 11.4 11.4 9.8 90 0.8 CALM 0 0 0 0 1023.9 1024.0 0.2
21/05:00pm 11.6 11.6 9.7 88 1.0 CALM 0 0 0 0 1023.7 1023.8 0.2
21/04:30pm 11.7 11.6 9.6 87 1.1 CALM 0 0 0 0 1023.5 1023.6 0.2
21/04:00pm 11.8 11.3 9.5 86 1.2 NNE 2 6 1 3 1023.4 1023.5 0.2
21/03:30pm 11.9 11.8 9.3 84 1.3 CALM 0 6 0 3 1023.2 1023.3 0.2
21/03:00pm 11.8 11.6 9.2 84 1.3 CALM 0 0 0 0 1023.0 1023.1 0.2
21/02:30pm 11.8 11.6 9.2 84 1.3 CALM 0 0 0 0 1022.9 1023.0 0.2
21/02:00pm 11.7 11.5 9.1 84 1.3 CALM 0 0 0 0 1022.9 1023.0 0.2
21/01:30pm 11.5 11.3 9.1 85 1.2 CALM 0 0 0 0 1023.0 1023.1 0.2
21/01:00pm 11.4 11.1 8.8 84 1.3 CALM 0 0 0 0 1023.2 1023.3 0.2
21/12:30pm 11.4 10.5 9.3 87 1.1 N 4 7 2 4 1023.5 1023.6 0.2
21/12:00pm 11.4 10.1 9.1 86 1.1 WNW 6 7 3 4 1023.6 1023.7 0.2
21/11:30am 11.5 10.7 9.8 89 0.9 N 4 9 2 5 1023.9 1024.0 0.2
21/11:00am 10.7 9.5 9.5 92 0.6 NE 6 7 3 4 1024.1 1024.2 0.2
21/10:30am 10.1 9.8 8.5 90 0.8 CALM 0 0 0 0 1024.1 1024.2 0.0
21/10:00am 10.1 9.8 8.5 90 0.8 CALM 0 0 0 0 1023.9 1024.0 0.0
21/09:30am 10.0 9.7 8.8 92 0.6 CALM 0 0 0 0 1023.7 1023.8 0.0
21/09:00am 9.7 7.7 8.5 92 0.6 SSE 9 15 5 8 1023.5 1023.6 6.4
21/08:30am 9.7 9.5 9.1 96 0.3 CALM 0 6 0 3 1023.2 1023.3 6.4
21/08:00am 9.6 9.4 9.0 96 0.3 CALM 0 0 0 0 1022.8 1022.9 6.4
21/07:30am 9.4 8.8 8.8 96 0.3 SW 2 7 1 4 1022.4 1022.5 6.2
21/07:00am 9.5 7.9 8.7 95 0.4 WSW 7 9 4 5 1022.1 1022.2 6.2
21/06:30am 9.5 8.0 8.6 94 0.4 SW 6 9 3 5 1021.7 1021.8 6.2
21/06:00am 9.5 7.0 8.4 93 0.5 SW 11 19 6 10 1021.4 1021.5 6.2
21/05:30am 9.7 7.3 8.8 94 0.4 SW 11 15 6 8 1021.1 1021.2 6.2
21/05:00am 9.8 8.4 9.0 95 0.4 SW 6 9 3 5 1020.9 1021.0 6.2
21/04:30am 9.9 8.0 9.0 94 0.4 SW 9 13 5 7 1020.6 1020.7 6.2
21/04:00am 9.9 7.6 9.0 94 0.4 SW 11 15 6 8 1020.3 1020.4 6.2
21/03:30am 9.9 8.0 9.1 95 0.4 WSW 9 13 5 7 1020.3 1020.4 6.2
21/03:00am 10.1 8.8 9.3 95 0.4 SW 6 11 3 6 1020.1 1020.2 6.2
21/02:30am 10.2 8.4 9.3 94 0.4 SW 9 11 5 6 1020.0 1020.1 6.2
21/02:00am 10.3 7.0 9.5 95 0.4 WSW 17 24 9 13 1019.8 1019.9 6.2
21/01:30am 10.4 7.1 9.6 95 0.4 WSW 17 24 9 13 1019.5 1019.6 6.2
21/01:00am 10.4 7.1 9.6 95 0.4 SW 17 30 9 16 1019.2 1019.3 6.2
21/12:30am 10.7 7.0 10.1 96 0.3 SW 20 28 11 15 1019.1 1019.2 6.2
21/12:00am 11.1 8.1 10.5 96 0.3 WSW 17 28 9 15 1018.8 1018.9 6.0
 
Date/Time
EST
Tmp

°C
App
Tmp
°C
Dew
Point
°C
Rel
Hum
%
Delta-T

°C
Wind Press
QNH
hPa
Press
MSL
hPa
Rain
since
9 am
mm
Dir
 
Spd
km/h
Gust
km/h
Spd
kts
Gust
kts
20/11:30pm 11.2 6.9 10.6 96 0.3 SW 24 39 13 21 1018.5 1018.6 5.8
20/11:00pm 11.4 7.5 10.8 96 0.3 WSW 22 33 12 18 1018.1 1018.2 5.6
20/10:30pm 11.8 8.4 11.3 97 0.3 WSW 20 32 11 17 1018.0 1018.1 5.4
20/10:00pm 12.1 8.9 11.8 98 0.2 WSW 20 33 11 18 1017.7 1017.8 5.2

Latest Capital City Observations: Canberra | Sydney | Melbourne | Brisbane | Adelaide | Perth | Hobart | Darwin

Other Formats:

Comma delimited format used in spreadsheet applications
http://www.bom.gov.au/fwo/IDV60901/IDV60901.94864.axf

JavaScript Object Notation format (JSON) in row-major order
http://www.bom.gov.au/fwo/IDV60901/IDV60901.94864.json